Location: 81360 Arifat, France
(43.7204°N, 2.3408°E)
Time: 22:42:00
(UTC+01:00)

ISS - Visible Passes

Search period start: 03 December 2023 00:00
Search period end: 13 December 2023 00:00
Orbit: 416 x 417 km, 51.6° (Epoch: 03 December)

Date Brightness Start Highest point End Pass type
(mag) Time Alt. Az. Time Alt. Az. Time Alt. Az.
03 Dec -3.7 18:16:27 10° NW 18:19:46 61° NNE 18:22:31 14° ESE visible
03 Dec -1.0 19:53:45 10° W 19:55:28 18° WSW 19:55:28 18° WSW visible
04 Dec -2.0 19:04:51 10° WNW 19:07:53 32° SW 19:09:50 17° SSE visible
05 Dec -3.0 18:16:08 10° WNW 18:19:25 54° SW 18:22:41 10° SE visible
06 Dec -0.5 19:05:38 10° WSW 19:07:08 12° SW 19:08:38 10° SSW visible
07 Dec -0.9 18:16:07 10° W 18:18:42 21° SW 18:21:17 10° S visible
